Tracking 20472 objects as of 28-Feb-2020
HD Live streaming from Space Station
objects crossing your sky now

GARUDA 1

Track GARUDA 1 now!
GARUDA 1 is classified as:


NORAD ID: 26089
Int'l Code: 2000-011A
Perigee: 35,870.5 km
Apogee: 35,921.6 km
Inclination: 4.0 °
Period: 1,441.3 minutes
Semi major axis: 42267 km
RCS: 16.0243 m2 (large)
Launch date: February 12, 2000
Source: Indonesia (INDO)
Launch site: TYURATAM MISSILE AND SPACE COMPLEX (TTMTR)

L-band; mobile telephone communications.
aabbcc
Your satellite tracking list
Your tracking list is empty




NASA's NSSDC Master Catalog

Two Line Element Set (TLE):
1 26089U 00011A   20058.71021789 +.00000116 +00000-0 +00000-0 0  9995
2 26089 003.9899 093.1493 0006037 249.7768 291.7860 00.99907948018662
Source of the keplerian elements: AFSPC